Home   Weather   Kulmbach   Past weeks

Flag for Germany Past Weather in Kulmbach, Bavaria, Germany — Yesterday and Last 2 Weeks

Now
39 °F

Light rain. Fog.


Feels Like: 33 °F
Forecast: 39 / 46 °F
Wind: 9 mph from Southwest

Location: Hof Airport

Current Time: Jan 24, 2018 at 11:30:27 am

Latest Report: Jan 24, 2018 at 10:50 am


Visibility: 1 mi

Pressure: 30.18 "Hg

Humidity: 93%

Dew Point: 37 °F

Location of KulmbachLocation

Past Weather in Kulmbach — Graph

°F

Kulmbach Temperature Yesterday

Maximum temperature yesterday: 37 °F (at 6:50 pm)
Minimum temperature yesterday: 34 °F (at 7:20 am)
Average temperature yesterday: 36 °F

High & Low Weather Summary for the Past Weeks

 TemperatureHumidityPressure
High46 °F (Jan 10, 12:50 pm)100% (Jan 11, 9:20 am)30.27 "Hg (Jan 11, 9:20 am)
Low25 °F (Jan 21, 5:50 pm)56% (Jan 18, 4:50 pm)29.21 "Hg (Jan 18, 2:20 pm)
Average34 °F88%29.84 "Hg
* Reported Jan 9 10:20 am — Jan 24 10:20 am, Kulmbach. Weather by CustomWeather, © 2018

Note: Actual official high and low records may vary slightly from our data, if they occured in-between our weather recording intervals... More about our weather records

Advertising

Kulmbach Weather History for the Previous 24 Hours

Scroll right to see more
 ConditionsComfort  
Time TempWeatherWind HumidityBarometerVisibility
10:20 am
Wed, Jan 24
39 °FLight rain. Fog.7 mph93%30.18 "Hg1 mi
9:50 am37 °FLight rain. Fog.8 mph93%30.18 "Hg1 mi
9:20 am37 °FFog.8 mph93%30.21 "Hg1 mi
8:50 am37 °FSnow flurries. Fog.9 mph93%30.18 "Hg1 mi
8:20 am37 °FFog.8 mph93%30.18 "Hg1 mi
7:50 am36 °FFog.10 mph93%30.18 "Hg1 mi
7:20 am36 °FFog.13 mph93%30.18 "Hg2 mi
6:50 am36 °FFog.13 mph93%30.18 "Hg1 mi
7:50 pm
Tue, Jan 23
37 °FPartly cloudy.10 mph87%30.21 "HgN/A
7:20 pm37 °FOvercast.10 mph87%30.21 "HgN/A
6:50 pm37 °FMostly cloudy.9 mph87%30.21 "HgN/A
6:20 pm36 °FLow clouds.8 mph93%30.21 "Hg5 mi
5:50 pm36 °FOvercast.9 mph93%30.21 "Hg4 mi
5:20 pm36 °FPartly cloudy.9 mph93%30.21 "Hg5 mi
4:50 pm36 °FOvercast.8 mph93%30.21 "Hg5 mi
4:20 pm36 °FBroken clouds.8 mph93%30.21 "Hg5 mi
3:50 pm36 °FBroken clouds.8 mph93%30.21 "Hg6 mi
3:20 pm36 °FCloudy.8 mph93%30.21 "Hg4 mi
2:50 pm36 °FFog.8 mph93%30.21 "Hg2 mi
2:20 pm36 °FFog.10 mph93%30.21 "Hg2 mi
1:50 pm36 °FFog.9 mph93%30.21 "Hg2 mi
1:20 pm36 °FPartly sunny.12 mph93%30.21 "Hg4 mi
12:50 pm36 °FFog.8 mph93%30.21 "Hg1 mi
12:20 pm36 °FFog.10 mph93%30.21 "Hg1 mi
11:50 am36 °FFog.10 mph93%30.21 "Hg1 mi
11:20 am36 °FFog.10 mph93%30.21 "Hg1 mi
Weather by CustomWeather, © 2018

See weather overview